Date,TemperatureHighF,TemperatureAvgF,TemperatureLowF,DewpointHighF,DewpointAvgF,DewpointLowF,HumidityHigh,HumidityAvg,HumidityLow,PressureMaxIn,PressureMinIn,WindSpeedMaxMPH,WindSpeedAvgMPH,GustSpeedMaxMPH,PrecipitationSumIn
2013-11-1,66.2,62.5,32.0,62.5,58.4,32.0,100,87,77,29.83,29.55,31,18,31,0.01
2013-11-2,62.6,57.5,50.0,55.3,49.3,43.0,94,74,59,29.73,29.62,8,4,8,0.00
2013-11-3,53.6,46.7,35.6,46.6,33.7,17.4,81,62,36,30.41,29.73,17,10,17,0.00
2013-11-4,46.4,37.7,30.2,24.6,18.1,15.9,64,46,29,30.69,30.41,14,9,14,0.00
2013-11-5,51.8,42.0,32.0,39.1,32.2,24.7,81,69,54,30.70,30.52,10,5,10,0.00
2013-11-6,60.8,51.8,37.4,53.7,45.3,37.3,100,80,59,30.52,30.09,13,7,13,0.00
2013-11-7,62.6,59.0,48.2,60.8,56.8,44.5,100,92,82,30.09,29.70,19,10,19,0.06
2013-11-15,48.2,40.7,37.4,42.7,38.0,35.6,93,90,81,30.23,30.20,3,2,9,0.00
2013-11-16,55.4,44.4,33.8,46.5,39.3,33.8,100,83,58,30.32,30.23,10,3,10,0.00
2013-11-17,59.0,45.5,32.0,59.0,44.1,32.0,100,95,82,30.30,29.84,12,6,12,0.01
2013-11-18,62.6,54.4,32.0,60.8,43.3,30.2,100,70,36,29.84,29.59,25,12,25,0.14
2013-11-19,50.0,43.3,35.6,34.0,23.7,19.3,57,46,36,30.30,29.70,23,14,23,0.00
2013-11-20,44.6,33.9,26.6,19.5,15.5,8.1,69,49,22,30.62,30.30,13,8,13,0.00
2013-11-21,50.0,36.4,24.8,39.2,24.3,15.7,75,62,39,30.63,30.40,9,3,9,0.00
2013-11-22,53.6,51.9,50.0,51.9,47.1,39.1,94,84,66,30.40,29.85,14,7,14,0.01
2013-11-23,53.6,44.3,30.2,48.2,26.8,15.7,87,53,27,29.93,29.83,25,14,25,0.00
2013-11-24,30.2,26.4,23.0,17.6,4.2,-2.1,59,39,28,30.27,29.88,28,20,28,0.00
2013-11-25,39.2,29.0,19.4,26.5,10.8,3.2,60,47,32,30.43,30.27,20,11,20,0.00
2013-11-26,51.8,41.0,37.4,48.1,29.4,17.5,100,66,41,30.34,29.95,24,9,24,0.07
2013-11-27,57.2,54.8,51.8,57.2,53.3,48.1,100,95,87,29.95,29.45,39,24,39,0.02